When you browse on this site, cookies collect data to enhance your experience and personalize the content and advertising you see.
Visit our Privacy Policy to learn more. By continuing to use the site, you agree to this use of cookies and data.
  • In Spain
  • List of Countries
  • For 7 days
  • Water Temperature
  • Satellite Maps
  • Weather Map
  • Weather Widgets
  • user-avatar
    Login

    Hourly Weather Bliznaki

    Today, 27 May, Monday

    Time Temperature Precipitation Wind Pressure Humidity
    00:00 +9°C° 0 mm 3 mps 735 mmHg 88%
    01:00 +9°C° 0 mm 3 mps 735 mmHg 90%
    02:00 +8°C° 0 mm 3 mps 735 mmHg 91%
    03:00 +9°C° 0 mm 3 mps 735 mmHg 90%
    04:00 +8°C° 0 mm 4 mps 736 mmHg 90%
    05:00 +8°C° 0 mm 4 mps 736 mmHg 89%
    06:00 +10°C° 0 mm 4 mps 736 mmHg 87%
    07:00 +11°C° 0 mm 4 mps 736 mmHg 86%
    08:00 +11°C° 0 mm 4 mps 736 mmHg 85%
    09:00 +13°C° 0 mm 5 mps 736 mmHg 80%
    10:00 +15°C° 0 mm 6 mps 737 mmHg 75%
    11:00 +17°C° 0 mm 6 mps 737 mmHg 70%
    12:00 +19°C° 0.2 mm 6 mps 737 mmHg 70%
    13:00 +19°C° 0.2 mm 6 mps 737 mmHg 71%
    14:00 +20°C° 0.2 mm 6 mps 737 mmHg 71%
    15:00 +20°C° 0.7 mm 5 mps 737 mmHg 75%
    16:00 +20°C° 0.7 mm 5 mps 737 mmHg 78%
    17:00 +19°C° 0.7 mm 4 mps 737 mmHg 82%
    18:00 +18°C° 0.4 mm 4 mps 737 mmHg 84%
    19:00 +17°C° 0.4 mm 3 mps 737 mmHg 86%
    20:00 +16°C° 0.4 mm 3 mps 737 mmHg 89%
    21:00 +14°C° 0 mm 3 mps 737 mmHg 90%
    22:00 +14°C° 0 mm 3 mps 738 mmHg 92%
    23:00 +13°C° 0 mm 3 mps 738 mmHg 93%

    Tomorrow, 28 May, Tuesday

    Time Temperature Precipitation Wind Pressure Humidity
    00:00 +14°C° 0 mm 2 mps 738 mmHg 94%
    01:00 +14°C° 0 mm 2 mps 738 mmHg 94%
    02:00 +14°C° 0 mm 2 mps 738 mmHg 95%
    03:00 +14°C° 0 mm 2 mps 738 mmHg 95%
    04:00 +14°C° 0 mm 2 mps 738 mmHg 95%
    05:00 +14°C° 0 mm 2 mps 738 mmHg 95%
    06:00 +16°C° 0 mm 3 mps 739 mmHg 91%
    07:00 +18°C° 0 mm 3 mps 739 mmHg 87%
    08:00 +20°C° 0 mm 3 mps 739 mmHg 83%
    09:00 +21°C° 0.2 mm 4 mps 739 mmHg 78%
    10:00 +22°C° 0.2 mm 5 mps 738 mmHg 74%
    11:00 +24°C° 0.2 mm 6 mps 738 mmHg 69%
    12:00 +23°C° 0.3 mm 6 mps 738 mmHg 70%
    13:00 +23°C° 0.3 mm 6 mps 738 mmHg 70%
    14:00 +23°C° 0.3 mm 6 mps 738 mmHg 71%
    15:00 +23°C° 0 mm 6 mps 738 mmHg 70%
    16:00 +23°C° 0 mm 6 mps 737 mmHg 69%
    17:00 +23°C° 0 mm 6 mps 737 mmHg 67%
    18:00 +22°C° 0 mm 6 mps 737 mmHg 70%
    19:00 +21°C° 0 mm 6 mps 737 mmHg 73%
    20:00 +20°C° 0 mm 5 mps 738 mmHg 76%
    21:00 +20°C° 0 mm 5 mps 738 mmHg 76%
    22:00 +20°C° 0 mm 5 mps 738 mmHg 76%
    23:00 +19°C° 0 mm 5 mps 738 mmHg 76%

    Day after tomorrow, 29 May, Wednesday

    Time Temperature Precipitation Wind Pressure Humidity
    00:00 +19°C° 0 mm 5 mps 738 mmHg 79%
    01:00 +19°C° 0 mm 5 mps 738 mmHg 82%
    02:00 +17°C° 0 mm 5 mps 738 mmHg 85%
    03:00 +17°C° 0 mm 5 mps 738 mmHg 85%
    04:00 +17°C° 0 mm 5 mps 738 mmHg 85%
    05:00 +17°C° 0 mm 5 mps 738 mmHg 85%
    06:00 +19°C° 0 mm 6 mps 738 mmHg 80%
    07:00 +20°C° 0 mm 6 mps 738 mmHg 76%
    08:00 +21°C° 0 mm 7 mps 739 mmHg 71%
    09:00 +22°C° 0 mm 7 mps 739 mmHg 68%
    10:00 +23°C° 0 mm 7 mps 739 mmHg 64%
    11:00 +24°C° 0 mm 7 mps 739 mmHg 61%
    12:00 +24°C° 0 mm 6 mps 739 mmHg 65%
    13:00 +23°C° 0 mm 5 mps 739 mmHg 68%
    14:00 +23°C° 0 mm 4 mps 739 mmHg 71%
    15:00 +23°C° 0 mm 4 mps 739 mmHg 73%
    16:00 +23°C° 0 mm 4 mps 739 mmHg 74%
    17:00 +24°C° 0 mm 3 mps 739 mmHg 76%
    18:00 +22°C° 0.1 mm 4 mps 739 mmHg 79%
    19:00 +21°C° 0.1 mm 4 mps 739 mmHg 82%
    20:00 +20°C° 0.1 mm 4 mps 739 mmHg 85%
    21:00 +20°C° 1.2 mm 3 mps 739 mmHg 88%
    22:00 +19°C° 1.2 mm 3 mps 739 mmHg 91%
    23:00 +18°C° 1.2 mm 3 mps 739 mmHg 94%

    30 May, Thursday

    Time Temperature Precipitation Wind Pressure Humidity
    00:00 +18°C° 0 mm 3 mps 739 mmHg 94%
    01:00 +18°C° 0 mm 3 mps 739 mmHg 95%
    02:00 +18°C° 0 mm 3 mps 739 mmHg 95%
    03:00 +18°C° 0.3 mm 3 mps 739 mmHg 95%
    04:00 +18°C° 0.3 mm 3 mps 739 mmHg 95%
    05:00 +18°C° 0.3 mm 3 mps 740 mmHg 94%
    06:00 +19°C° 0.4 mm 3 mps 740 mmHg 91%
    07:00 +20°C° 0.4 mm 3 mps 740 mmHg 88%
    08:00 +21°C° 0.4 mm 3 mps 740 mmHg 86%
    09:00 +22°C° 1.3 mm 3 mps 740 mmHg 82%
    10:00 +24°C° 1.3 mm 3 mps 740 mmHg 79%
    11:00 +25°C° 1.3 mm 3 mps 740 mmHg 75%
    12:00 +25°C° 0.9 mm 3 mps 740 mmHg 75%
    13:00 +25°C° 0.9 mm 3 mps 740 mmHg 75%
    14:00 +25°C° 0.9 mm 3 mps 740 mmHg 75%
    15:00 +24°C° 1.2 mm 2 mps 740 mmHg 79%
    16:00 +24°C° 1.2 mm 2 mps 740 mmHg 82%
    17:00 +23°C° 1.2 mm 1 mps 740 mmHg 86%
    18:00 +22°C° 0.7 mm 1 mps 740 mmHg 87%
    19:00 +21°C° 0.7 mm 1 mps 741 mmHg 89%
    20:00 +20°C° 0.7 mm 1 mps 741 mmHg 90%
    21:00 +19°C° 0.1 mm 1 mps 741 mmHg 92%
    22:00 +19°C° 0.1 mm 1 mps 741 mmHg 93%
    23:00 +18°C° 0.1 mm 1 mps 741 mmHg 94%

    31 May, Friday

    Time Temperature Precipitation Wind Pressure Humidity
    00:00 +18°C° 0 mm 1 mps 741 mmHg 95%
    01:00 +17°C° 0 mm 2 mps 740 mmHg 95%
    02:00 +16°C° 0 mm 2 mps 740 mmHg 96%
    03:00 +17°C° 0 mm 2 mps 740 mmHg 96%
    04:00 +17°C° 0 mm 2 mps 740 mmHg 96%
    05:00 +18°C° 0 mm 1 mps 740 mmHg 96%
    06:00 +19°C° 0.1 mm 2 mps 740 mmHg 92%
    07:00 +20°C° 0.1 mm 2 mps 740 mmHg 88%
    08:00 +23°C° 0.1 mm 2 mps 740 mmHg 84%
    09:00 +24°C° 0.6 mm 3 mps 740 mmHg 77%
    10:00 +25°C° 0.6 mm 4 mps 740 mmHg 70%
    11:00 +27°C° 0.6 mm 5 mps 740 mmHg 63%
    12:00 +27°C° 0.3 mm 5 mps 740 mmHg 64%
    13:00 +27°C° 0.3 mm 5 mps 739 mmHg 65%
    14:00 +27°C° 0.3 mm 5 mps 739 mmHg 66%
    15:00 +26°C° 0.7 mm 4 mps 739 mmHg 73%
    16:00 +25°C° 0.7 mm 3 mps 739 mmHg 79%
    17:00 +24°C° 0.7 mm 3 mps 739 mmHg 85%
    18:00 +22°C° 0.1 mm 3 mps 739 mmHg 88%
    19:00 +21°C° 0.1 mm 3 mps 739 mmHg 90%
    20:00 +20°C° 0.1 mm 2 mps 738 mmHg 92%
    21:00 +20°C° 0.9 mm 3 mps 738 mmHg 92%
    22:00 +20°C° 0.9 mm 3 mps 738 mmHg 92%
    23:00 +19°C° 0.9 mm 3 mps 738 mmHg 92%

    1 June, Saturday

    Time Temperature Precipitation Wind Pressure Humidity
    00:00 +19°C° 0.8 mm 3 mps 738 mmHg 93%
    01:00 +18°C° 0.8 mm 3 mps 738 mmHg 93%
    02:00 +18°C° 0.8 mm 3 mps 738 mmHg 94%
    03:00 +18°C° 0.1 mm 3 mps 738 mmHg 94%
    04:00 +18°C° 0.1 mm 2 mps 738 mmHg 94%
    05:00 +18°C° 0.1 mm 2 mps 738 mmHg 94%
    06:00 +19°C° 0.7 mm 2 mps 738 mmHg 92%
    07:00 +20°C° 0.7 mm 3 mps 739 mmHg 90%
    08:00 +21°C° 0.7 mm 3 mps 739 mmHg 88%
    09:00 +21°C° 1.4 mm 3 mps 739 mmHg 88%
    10:00 +21°C° 1.4 mm 3 mps 740 mmHg 89%
    11:00 +20°C° 1.4 mm 3 mps 740 mmHg 89%
    12:00 +19°C° 1.8 mm 4 mps 740 mmHg 91%
    13:00 +18°C° 1.8 mm 4 mps 740 mmHg 93%
    14:00 +16°C° 1.8 mm 5 mps 741 mmHg 95%
    15:00 +15°C° 1.3 mm 5 mps 741 mmHg 95%
    16:00 +14°C° 1.3 mm 5 mps 741 mmHg 94%
    17:00 +14°C° 1.3 mm 5 mps 741 mmHg 94%
    18:00 +13°C° 0.1 mm 4 mps 742 mmHg 93%
    19:00 +13°C° 0.1 mm 4 mps 742 mmHg 92%
    20:00 +12°C° 0.1 mm 3 mps 742 mmHg 91%
    21:00 +12°C° 0.4 mm 4 mps 743 mmHg 91%
    22:00 +10°C° 0.4 mm 5 mps 743 mmHg 91%
    23:00 +9°C° 0.4 mm 5 mps 744 mmHg 90%
    Show more